Weather in 小ity of New Haven

United States     41掳18鈥26鈥砃   72掳55鈥32鈥砏
temp.,
掳C
wind,
m/s
gust,
m/s
humid.,
%
clouds,
%
prec.,
mm/h
press.,
hPa
HPBL,
m
18 may, tue
tue1823:00+14ssw228012 0.3 102614
02:00+13w227521 0.4 102615
05:00+13w2281100 0.1 102518
08:00+16w35708 0.1 1026145
11:00+20w355251 0.0 1026670
14:00+22w4645100 0.0 10241361
17:00+22wnw464445 0.0 10231156
20:00+19wsw3760100 0.0 1023169
19 may, wed
wed1923:00+17nw357096 0.0 102467
02:00+16nw25746 0.0 102471
05:00+15nw25764 0.0 102466
08:00+18nnw35665 0.0 1026190
11:00+22nnw14522 0.0 1026970
14:00+24ene155195 0.0 10241426
17:00+21se125956 0.0 102459
20:00+17e4677100 0.1 1025104
20 may, thu
thu2023:00+15ese36795 0.1 1027148
02:00+14e237522 0.1 102849
05:00+13ne2273100 0.0 102931
08:00+15ene2262100 0.0 1031138
11:00+17se335226 0.0 1032447
14:00+18se335277 0.0 1031384
17:00+18se4556100 0.0 1031232
20:00+15se477481 0.0 1031173
21 may, fri
fri2123:00+13se23835 0.0 1032109
02:00+12sse118348 0.0 103236
05:00+12sw118439 0.0 103220
08:00+15sw2368100 0.0 1032192
11:00+18ssw3458100 0.0 1031432
14:00+20s3457100 0.0 1029602
17:00+20nw2368100 0.0 1028304
20:00+17wnw2395100 0.8 102870
22 may, sat
sat2223:00+16sw3491100 0.4 102784
02:00+15wsw3694100 0.6 1025149
05:00+15wsw3596100 0.1 1024134
08:00+16wsw3696100 0.3 1023148
11:00+17sw3593100 0.3 1022207
14:00+16sw4694100 0.8 1019188
17:00+19ssw3476100 0.1 1017322
20:00+16ssw3594100 0.8 1016116